| time (UTC) | temp F | wind direction | speed knots | gust knots | rain 1hr in | rain 24hr in | rain mn in | humidity % | barometer mb |
| 20260506073050 | 68 | 211 | 11.3 | 17.4 | 0.00 | 0.00 | 0.00 | 48 | 1009.6 |
| 20260506071550 | 67 | 262 | 9.6 | 15.6 | 0.00 | 0.00 | 0.00 | 51 | 1009.5 |
| 20260506061546 | 65 | 234 | 7.8 | 16.5 | 0.00 | 0.00 | 0.00 | 54 | 1009.5 |
| 20260506044553 | 56 | 208 | 4.3 | 7.0 | 0.00 | 0.00 | 0.00 | 68 | 1009.4 |
| 20260506043049 | 56 | 200 | 2.6 | 6.1 | 0.00 | 0.00 | 0.00 | 67 | 1009.3 |
| 20260506041548 | 57 | 209 | 5.2 | 10.4 | 0.00 | 0.00 | 0.00 | 65 | 1009.4 |
| 20260506034604 | 57 | 190 | 7.0 | 9.6 | 0.00 | 0.00 | 0.00 | 64 | 1009.0 |
| 20260506033049 | 57 | 207 | 4.3 | 6.1 | 0.00 | 0.00 | 0.00 | 62 | 1008.9 |
| 20260506031601 | 58 | 219 | 6.1 | 12.2 | 0.00 | 0.00 | 0.00 | 59 | 1009.1 |
| 20260506030051 | 61 | 222 | 8.7 | 19.1 | 0.00 | 0.00 | 0.00 | 55 | 1009.2 |
| 20260506024554 | 60 | 229 | 13.9 | 23.5 | 0.00 | 0.00 | 0.00 | 55 | 1009.3 |
| 20260506023050 | 59 | 234 | 9.6 | 21.7 | 0.00 | 0.00 | 0.00 | 55 | 1009.3 |
| 20260506021544 | 58 | 213 | 8.7 | 13.0 | 0.00 | 0.00 | 0.00 | 59 | 1009.4 |
| 20260506020055 | 57 | 226 | 9.6 | 15.6 | 0.00 | 0.00 | 0.00 | 60 | 1009.4 |
| 20260506014553 | 56 | 234 | 9.6 | 13.0 | 0.00 | 0.00 | 0.00 | 62 | 1009.5 |
| 20260506013052 | 55 | 233 | 9.6 | 13.0 | 0.00 | 0.00 | 0.00 | 64 | 1009.5 |
| 20260506011551 | 54 | 230 | 6.1 | 11.3 | 0.00 | 0.00 | 0.00 | 65 | 1009.6 |
| 20260506010056 | 54 | 224 | 7.0 | 12.2 | 0.00 | 0.00 | 0.00 | 65 | 1009.8 |
| 20260506004600 | 54 | 221 | 8.7 | 12.2 | 0.00 | 0.00 | 0.00 | 65 | 1009.8 |
| 20260506003052 | 53 | 205 | 7.8 | 10.4 | 0.00 | 0.00 | 0.00 | 66 | 1010.0 |
| 20260506001554 | 54 | 225 | 7.0 | 10.4 | 0.00 | 0.00 | 0.00 | 66 | 1010.0 |
| 20260506000052 | 53 | 236 | 6.1 | 10.4 | 0.00 | 0.00 | 0.00 | 67 | 1010.1 |
| 20260505234556 | 55 | 248 | 7.0 | 12.2 | 0.00 | 0.00 | 0.00 | 65 | 1010.2 |
| 20260505233043 | 55 | 252 | 8.7 | 14.8 | 0.00 | 0.00 | 0.00 | 64 | 1010.2 |
| 20260505231554 | 54 | 241 | 10.4 | 13.0 | 0.00 | 0.00 | 0.00 | 64 | 1010.1 |
| 20260505230052 | 53 | 255 | 8.7 | 11.3 | 0.00 | 0.00 | 0.00 | 66 | 1010.2 |
| 20260505224552 | 52 | 252 | 8.7 | 11.3 | 0.00 | 0.00 | 0.00 | 67 | 1010.3 |
| 20260505223052 | 51 | 252 | 8.7 | 10.4 | 0.00 | 0.00 | 0.00 | 67 | 1010.3 |
| 20260505221553 | 50 | 256 | 7.8 | 9.6 | 0.00 | 0.00 | 0.00 | 67 | 1010.4 |
| 20260505220046 | 50 | 241 | 6.1 | 8.7 | 0.00 | 0.00 | 0.00 | 67 | 1010.5 |
| 20260505214558 | 50 | 252 | 7.0 | 8.7 | 0.00 | 0.00 | 0.00 | 67 | 1010.6 |
| 20260505213046 | 50 | 254 | 5.2 | 7.8 | 0.00 | 0.00 | 0.00 | 64 | 1010.7 |
| 20260505211612 | 52 | 252 | 5.2 | 7.0 | 0.00 | 0.00 | 0.00 | 62 | 1010.7 |
| 20260505210054 | 53 | 243 | 5.2 | 7.0 | 0.00 | 0.00 | 0.00 | 60 | 1010.8 |
| 20260505204553 | 55 | 250 | 7.0 | 9.6 | 0.00 | 0.00 | 0.00 | 58 | 1010.8 |
| 20260505203059 | 56 | 259 | 9.6 | 11.3 | 0.00 | 0.00 | 0.00 | 56 | 1010.7 |
| 20260505201556 | 55 | 254 | 6.1 | 7.8 | 0.00 | 0.00 | 0.00 | 59 | 1010.6 |
| 20260505200050 | 56 | 260 | 5.2 | 9.6 | 0.00 | 0.00 | 0.00 | 55 | 1010.6 |
| 20260505194606 | 59 | 250 | 7.0 | 8.7 | 0.00 | 0.00 | 0.00 | 50 | 1010.4 |
| 20260505193045 | 61 | 229 | 6.1 | 11.3 | 0.00 | 0.00 | 0.00 | 47 | 1010.5 |
| 20260505191543 | 61 | 236 | 7.8 | 11.3 | 0.00 | 0.00 | 0.00 | 48 | 1010.5 |
| 20260505190052 | 61 | 225 | 6.1 | 8.7 | 0.00 | 0.00 | 0.00 | 48 | 1010.6 |
| 20260505184547 | 62 | 219 | 6.1 | 9.6 | 0.00 | 0.00 | 0.00 | 47 | 1010.5 |
| 20260505183046 | 63 | 222 | 6.1 | 8.7 | 0.00 | 0.00 | 0.00 | 46 | 1010.4 |
| 20260505181555 | 64 | 224 | 6.1 | 8.7 | 0.00 | 0.00 | 0.00 | 44 | 1010.5 |
| 20260505180050 | 65 | 211 | 7.0 | 10.4 | 0.00 | 0.00 | 0.00 | 42 | 1010.3 |
| 20260505174554 | 66 | 229 | 7.8 | 14.8 | 0.00 | 0.00 | 0.00 | 39 | 1010.4 |
| 20260505173051 | 67 | 218 | 9.6 | 15.6 | 0.00 | 0.00 | 0.00 | 36 | 1010.4 |
| 20260505171548 | 68 | 223 | 11.3 | 16.5 | 0.00 | 0.00 | 0.00 | 35 | 1010.6 |
| 20260505170048 | 68 | 233 | 8.7 | 14.8 | 0.00 | 0.00 | 0.00 | 36 | 1010.5 |
| 20260505164605 | 69 | 221 | 7.0 | 17.4 | 0.00 | 0.00 | 0.00 | 35 | 1010.7 |
| 20260505163101 | 69 | 221 | 11.3 | 21.7 | 0.00 | 0.00 | 0.00 | 36 | 1010.7 |
| 20260505161607 | 69 | 227 | 9.6 | 16.5 | 0.00 | 0.00 | 0.00 | 38 | 1010.8 |
| 20260505153051 | 71 | 223 | 10.4 | 19.1 | 0.00 | 0.00 | 0.00 | 33 | 1011.0 |
| 20260505151547 | 72 | 200 | 11.3 | 21.7 | 0.00 | 0.00 | 0.00 | 34 | 1011.0 |
| 20260505130110 | 75 | 217 | 16.5 | 22.6 | 0.00 | 0.00 | 0.00 | 31 | 1011.8 |
| 20260505124602 | 75 | 229 | 13.0 | 25.2 | 0.00 | 0.00 | 0.00 | 31 | 1011.9 |
| 20260505123054 | 74 | 229 | 18.2 | 24.3 | 0.00 | 0.00 | 0.00 | 31 | 1011.9 |
| 20260505121552 | 75 | 249 | 13.9 | 23.5 | 0.00 | 0.00 | 0.00 | 30 | 1012.0 |
| 20260505120111 | 73 | 229 | 13.0 | 23.5 | 0.00 | 0.00 | 0.00 | 31 | 1012.1 |
| 20260505114549 | 73 | 224 | 14.8 | 26.1 | 0.00 | 0.00 | 0.00 | 31 | 1012.5 |
| 20260505113059 | 73 | 240 | 16.5 | 25.2 | 0.00 | 0.00 | 0.00 | 31 | 1012.4 |
| 20260505111544 | 71 | 215 | 13.0 | 20.9 | 0.00 | 0.00 | 0.00 | 32 | 1012.7 |
| 20260505101552 | 72 | 248 | 18.2 | 24.3 | 0.00 | 0.00 | 0.00 | 31 | 1013.2 |
| 20260505100051 | 73 | 244 | 17.4 | 27.8 | 0.00 | 0.00 | 0.00 | 31 | 1013.5 |
| 20260505094546 | 74 | 215 | 14.8 | 21.7 | 0.00 | 0.00 | 0.00 | 30 | 1013.5 |
| 20260505093050 | 72 | 192 | 13.9 | 22.6 | 0.00 | 0.00 | 0.00 | 33 | 1013.4 |
| 20260505091554 | 73 | 227 | 10.4 | 19.1 | 0.00 | 0.00 | 0.00 | 35 | 1013.6 |
| 20260505090059 | 71 | 240 | 11.3 | 19.1 | 0.00 | 0.00 | 0.00 | 36 | 1013.5 |
| 20260505084551 | 71 | 221 | 12.2 | 20.0 | 0.00 | 0.00 | 0.00 | 34 | 1013.6 |
| 20260505083046 | 70 | 246 | 12.2 | 22.6 | 0.00 | 0.00 | 0.00 | 37 | 1013.6 |
| 20260505081603 | 70 | 233 | 13.9 | 20.0 | 0.00 | 0.00 | 0.00 | 36 | 1013.8 |
| 20260505080050 | 72 | 182 | 8.7 | 25.2 | 0.00 | 0.00 | 0.00 | 36 | 1013.8 |